Location: Ajisawe
(8.4333°N, 4.3833°E)
Time: 01:22:08
(UTC+00:00)

Courier 1B Rocket - Pass Details

Date: 23 April 2021
Orbit: 920 x 1202 km, 28.3° (Epoch: 13 May)

Event Time Altitude Azimuth Distance (km) Brightness Sun altitude
Rises 19:36:21 0° 307° (NW) 3,651 9.2 -25.7°
Reaches altitude 10° 19:40:42 10° 334° (NNW) 2,763 7.9 -26.7°
Maximum altitude 19:43:41 13° 1° (N) 2,581 7.4 -27.4°
Drops below altitude 10° 19:46:45 10° 28° (NNE) 2,856 7.3 -28.1°
Enters shadow 19:47:25 - 32° (NNE) 2,965 7.4 -28.3°
Sets 19:51:25 0° 54° (NE) 3,884 - -29.2°
